When you browse on this site, cookies collect data to enhance your experience and personalize the content and advertising you see.
Visit our Privacy Policy to learn more. By continuing to use the site, you agree to this use of cookies and data.
  • In Spain
  • List of Countries
  • For 7 days
  • Water Temperature
  • Satellite Maps
  • Weather Map
  • Weather Widgets
  • user-avatar
    Login

    Hourly Weather Agra

    Today, 21 July, Sunday

    Time Temperature Precipitation Wind Pressure Humidity
    00:00 +38°C° 0 mm 2 mps 736 mmHg 45%
    01:00 +38°C° 0 mm 2 mps 735 mmHg 45%
    02:00 +37°C° 0 mm 2 mps 735 mmHg 46%
    03:00 +37°C° 0 mm 2 mps 735 mmHg 46%
    04:00 +37°C° 0 mm 2 mps 735 mmHg 47%
    05:00 +36°C° 0 mm 2 mps 735 mmHg 51%
    06:00 +37°C° 0 mm 2 mps 736 mmHg 49%
    07:00 +38°C° 0 mm 3 mps 736 mmHg 46%
    08:00 +38°C° 0 mm 3 mps 736 mmHg 44%
    09:00 +39°C° 0 mm 3 mps 736 mmHg 41%
    10:00 +40°C° 0 mm 2 mps 736 mmHg 38%
    11:00 +41°C° 0 mm 2 mps 736 mmHg 35%
    12:00 +41°C° 0 mm 2 mps 736 mmHg 35%
    13:00 +41°C° 0 mm 2 mps 735 mmHg 35%
    14:00 +41°C° 0 mm 2 mps 735 mmHg 35%
    15:00 +42°C° 0 mm 2 mps 734 mmHg 34%
    16:00 +42°C° 0 mm 2 mps 733 mmHg 34%
    17:00 +42°C° 0 mm 1 mps 733 mmHg 34%
    18:00 +41°C° 0 mm 1 mps 733 mmHg 36%
    19:00 +40°C° 0 mm 2 mps 734 mmHg 38%
    20:00 +40°C° 0 mm 2 mps 734 mmHg 40%
    21:00 +39°C° 0 mm 2 mps 734 mmHg 41%
    22:00 +39°C° 0 mm 2 mps 734 mmHg 42%
    23:00 +39°C° 0 mm 1 mps 734 mmHg 43%

    Tomorrow, 22 July, Monday

    Time Temperature Precipitation Wind Pressure Humidity
    00:00 +39°C° 0 mm 1 mps 734 mmHg 44%
    01:00 +37°C° 0 mm 1 mps 734 mmHg 45%
    02:00 +37°C° 0 mm 1 mps 734 mmHg 45%
    03:00 +37°C° 0 mm 1 mps 733 mmHg 46%
    04:00 +37°C° 0 mm 1 mps 733 mmHg 47%
    05:00 +36°C° 0 mm 1 mps 733 mmHg 48%
    06:00 +37°C° 0.1 mm 1 mps 734 mmHg 46%
    07:00 +39°C° 0.1 mm 1 mps 734 mmHg 44%
    08:00 +39°C° 0.1 mm 2 mps 735 mmHg 42%
    09:00 +40°C° 0 mm 2 mps 735 mmHg 40%
    10:00 +41°C° 0 mm 2 mps 735 mmHg 37%
    11:00 +42°C° 0 mm 2 mps 734 mmHg 35%
    12:00 +42°C° 0 mm 2 mps 734 mmHg 33%
    13:00 +43°C° 0 mm 2 mps 733 mmHg 31%
    14:00 +45°C° 0 mm 2 mps 733 mmHg 30%
    15:00 +43°C° 0.1 mm 2 mps 732 mmHg 31%
    16:00 +43°C° 0.1 mm 2 mps 732 mmHg 32%
    17:00 +42°C° 0.1 mm 2 mps 732 mmHg 33%
    18:00 +42°C° 0 mm 2 mps 732 mmHg 34%
    19:00 +42°C° 0 mm 1 mps 732 mmHg 35%
    20:00 +41°C° 0 mm 1 mps 733 mmHg 36%
    21:00 +41°C° 0 mm 1 mps 733 mmHg 37%
    22:00 +40°C° 0 mm 1 mps 733 mmHg 37%
    23:00 +40°C° 0 mm 1 mps 733 mmHg 38%

    Day after tomorrow, 23 July, Tuesday

    Time Temperature Precipitation Wind Pressure Humidity
    00:00 +40°C° 0 mm 1 mps 732 mmHg 39%
    01:00 +39°C° 0 mm 1 mps 732 mmHg 40%
    02:00 +39°C° 0 mm 1 mps 732 mmHg 40%
    03:00 +39°C° 0.2 mm 1 mps 732 mmHg 42%
    04:00 +37°C° 0.2 mm 1 mps 732 mmHg 43%
    05:00 +37°C° 0.2 mm 1 mps 732 mmHg 44%
    06:00 +37°C° 0.1 mm 1 mps 732 mmHg 42%
    07:00 +39°C° 0.1 mm 2 mps 733 mmHg 40%
    08:00 +40°C° 0.1 mm 2 mps 734 mmHg 39%
    09:00 +41°C° 0 mm 2 mps 733 mmHg 36%
    10:00 +42°C° 0 mm 2 mps 733 mmHg 33%
    11:00 +45°C° 0 mm 2 mps 733 mmHg 30%
    12:00 +45°C° 0 mm 2 mps 732 mmHg 28%
    13:00 +46°C° 0 mm 2 mps 732 mmHg 27%
    14:00 +46°C° 0 mm 2 mps 731 mmHg 26%
    15:00 +46°C° 0 mm 3 mps 731 mmHg 27%
    16:00 +45°C° 0 mm 3 mps 731 mmHg 27%
    17:00 +45°C° 0 mm 3 mps 730 mmHg 28%
    18:00 +43°C° 0 mm 2 mps 731 mmHg 29%
    19:00 +43°C° 0 mm 1 mps 731 mmHg 31%
    20:00 +39°C° 0 mm 0 mps 731 mmHg 32%
    21:00 +42°C° 0 mm 1 mps 731 mmHg 33%
    22:00 +41°C° 0 mm 1 mps 731 mmHg 34%
    23:00 +41°C° 0 mm 1 mps 732 mmHg 35%

    24 July, Wednesday

    Time Temperature Precipitation Wind Pressure Humidity
    00:00 +40°C° 0 mm 1 mps 731 mmHg 36%
    01:00 +40°C° 0 mm 1 mps 731 mmHg 37%
    02:00 +40°C° 0 mm 1 mps 731 mmHg 38%
    03:00 +39°C° 0 mm 1 mps 731 mmHg 40%
    04:00 +39°C° 0 mm 2 mps 731 mmHg 42%
    05:00 +38°C° 0 mm 2 mps 731 mmHg 44%
    06:00 +39°C° 0 mm 2 mps 732 mmHg 41%
    07:00 +40°C° 0 mm 3 mps 732 mmHg 38%
    08:00 +42°C° 0 mm 3 mps 733 mmHg 36%
    09:00 +43°C° 0 mm 4 mps 732 mmHg 33%
    10:00 +44°C° 0 mm 4 mps 732 mmHg 31%
    11:00 +45°C° 0 mm 5 mps 732 mmHg 29%
    12:00 +46°C° 0 mm 5 mps 732 mmHg 29%
    13:00 +46°C° 0 mm 5 mps 731 mmHg 29%
    14:00 +45°C° 0 mm 4 mps 731 mmHg 29%
    15:00 +44°C° 0.3 mm 6 mps 731 mmHg 37%
    16:00 +40°C° 0.3 mm 8 mps 731 mmHg 46%
    17:00 +38°C° 0.3 mm 10 mps 732 mmHg 54%
    18:00 +37°C° 1.4 mm 9 mps 732 mmHg 60%
    19:00 +34°C° 1.4 mm 8 mps 733 mmHg 67%
    20:00 +33°C° 1.4 mm 7 mps 734 mmHg 73%
    21:00 +33°C° 0.2 mm 6 mps 734 mmHg 72%
    22:00 +33°C° 0.2 mm 5 mps 734 mmHg 71%
    23:00 +33°C° 0.2 mm 3 mps 735 mmHg 71%

    25 July, Thursday

    Time Temperature Precipitation Wind Pressure Humidity
    00:00 +33°C° 0.1 mm 3 mps 735 mmHg 70%
    01:00 +32°C° 0.1 mm 2 mps 734 mmHg 70%
    02:00 +32°C° 0.1 mm 2 mps 734 mmHg 69%
    03:00 +31°C° 0.2 mm 2 mps 734 mmHg 69%
    04:00 +31°C° 0.2 mm 1 mps 734 mmHg 69%
    05:00 +31°C° 0.2 mm 1 mps 734 mmHg 70%
    06:00 +31°C° 0 mm 1 mps 734 mmHg 68%
    07:00 +32°C° 0 mm 2 mps 735 mmHg 67%
    08:00 +32°C° 0 mm 2 mps 735 mmHg 65%
    09:00 +34°C° 0.3 mm 2 mps 735 mmHg 61%
    10:00 +35°C° 0.3 mm 2 mps 735 mmHg 58%
    11:00 +36°C° 0.3 mm 2 mps 736 mmHg 54%
    12:00 +36°C° 3 mm 2 mps 735 mmHg 56%
    13:00 +36°C° 3 mm 3 mps 735 mmHg 58%
    14:00 +35°C° 3 mm 3 mps 734 mmHg 60%
    15:00 +35°C° 2.1 mm 3 mps 734 mmHg 64%
    16:00 +34°C° 2.1 mm 4 mps 734 mmHg 67%
    17:00 +33°C° 2.1 mm 4 mps 734 mmHg 71%
    18:00 +33°C° 0.1 mm 4 mps 734 mmHg 72%
    19:00 +33°C° 0.1 mm 3 mps 734 mmHg 73%
    20:00 +31°C° 0.1 mm 3 mps 735 mmHg 74%
    21:00 +31°C° 0 mm 3 mps 735 mmHg 74%
    22:00 +31°C° 0 mm 3 mps 735 mmHg 75%
    23:00 +31°C° 0 mm 2 mps 735 mmHg 75%

    26 July, Friday

    Time Temperature Precipitation Wind Pressure Humidity
    00:00 +31°C° 0 mm 2 mps 734 mmHg 76%
    01:00 +31°C° 0 mm 2 mps 734 mmHg 76%
    02:00 +31°C° 0 mm 2 mps 733 mmHg 77%
    03:00 +31°C° 0.8 mm 2 mps 733 mmHg 77%
    04:00 +31°C° 0.8 mm 1 mps 733 mmHg 77%
    05:00 +31°C° 0.8 mm 1 mps 733 mmHg 77%
    06:00 +31°C° 3 mm 1 mps 734 mmHg 75%
    07:00 +32°C° 3 mm 1 mps 734 mmHg 73%
    08:00 +32°C° 3 mm 1 mps 734 mmHg 71%
    09:00 +33°C° 0.9 mm 1 mps 734 mmHg 67%
    10:00 +34°C° 0.9 mm 2 mps 734 mmHg 63%
    11:00 +35°C° 0.9 mm 3 mps 734 mmHg 59%
    12:00 +35°C° 0.1 mm 3 mps 734 mmHg 59%
    13:00 +35°C° 0.1 mm 3 mps 733 mmHg 60%
    14:00 +35°C° 0.1 mm 3 mps 733 mmHg 60%
    15:00 +34°C° 0 mm 2 mps 733 mmHg 62%
    16:00 +34°C° 0 mm 2 mps 732 mmHg 64%
    17:00 +32°C° 0 mm 2 mps 732 mmHg 66%
    18:00 +32°C° 0 mm 1 mps 732 mmHg 67%
    19:00 +32°C° 0 mm 1 mps 733 mmHg 69%
    20:00 +30°C° 0 mm 0 mps 733 mmHg 71%
    21:00 +30°C° 0 mm 0 mps 733 mmHg 72%
    22:00 +30°C° 0 mm 0 mps 733 mmHg 73%
    23:00 +31°C° 0 mm 1 mps 733 mmHg 74%
    Show more